Location: Palomar Mountain Lodge
(33.3110°N, 116.8495°W)
Time: 05:19:04
(UTC-07:00)

MOZHAYETS 4 - Pass Details

Date: 14 April 2026
Orbit: 642 x 659 km, 98.3° (Epoch: 12 May)

Event Time Altitude Azimuth Distance (km) Brightness Sun altitude
Rises 05:05:02 0° 135° (SE) 2,956 11.3 -15.4°
Reaches altitude 10° 05:07:37 10° 121° (ESE) 2,046 10.7 -14.9°
Maximum altitude 05:11:04 23° 70° (ENE) 1,393 10.4 -14.3°
Drops below altitude 10° 05:14:32 10° 19° (NNE) 2,047 10.8 -13.6°
Sets 05:17:07 0° 4° (N) 2,959 11.4 -13.1°
